Find Starlink 4707

NORAD ID: 53721 Int'l Des: 2022-107 Owner: SPXS Country: US Constellation: starlink operational
LEOCIRCULAR

当前视图

正在加载3D地球...

About Starlink 4707

Starlink 4707 (NORAD 53721) is a starlink constellation satellite (v1.5) launched Sep 5, 2022 by SPXS of US. It operates in LEO, CIRCULAR orbit with a mass of 305.00 kg.

关于 Starlink 4707

正在加载描述...

即将过境

Passes for default location (London). Set your location on the main map for personalized predictions.

高度历史

Loading altitude history...

两行轨道根数

1 53721U 22107X 26170.28691542 .00000165 00000-0 28433-4 0 9999
2 53721 53.1596 157.7611 0001289 88.4784 271.6355 15.08834513209756
Epoch: Jun 19, 2026 • Age: 25 hours

当前状态

高度 547.4 km
速度 7.59 km/s
星下点 -24.77°S, 30.28°W
发射日期 Sep 5, 2022
运行时间 3.7 years
类型 internet

技术详情

分类 Payload
质量 305.00 kg
干质量 290.00 kg
总质量 305.00 kg
长度 0.20 m
直径 2.80 m
跨度 9.00 m
形状 Box + pan
制造商 SPXS
平台类型 Starlink
阶段状态 In Orbit
所有者/国家 SPXS/US

Most Searched